{"data":{"norad_id":35756,"intl_designator":"2009-044B","name":"OPTUS D3","alt_names":[],"object_type":"PAYLOAD","status":"ACTIVE","operator":null,"country":"AUS","launch_date":"2009-08-21","launch_site_code":"FRGUI","launch_vehicle":null,"mission":null,"orbit_class":"UNKNOWN","rcs_meters":6.3096,"size_class":null,"mass_kg":null,"dimensions":null,"purposes":["comms"],"wikipedia_slug":null,"has_3d_model":false,"image_url":null,"decayed_at":null,"tle_current":{"epoch":"2026-05-25T02:46:20.902080Z","epoch_age_seconds":71917,"freshness":"FRESH","line1":"1 35756U 09044B   26145.11551970 -.00000148  00000+0  00000+0 0  9992","line2":"2 35756   0.8533 270.2936 0003405 149.7635  20.3636  1.00271730 61337","mean_motion":1.0027173,"eccentricity":0.0003405,"inclination_deg":0.8533,"raan_deg":270.2936,"arg_perigee_deg":149.7635,"mean_anomaly_deg":20.3636,"bstar":0,"rev_number":6133,"period_min":1436.0976917422,"perigee_km":35772.253283211,"apogee_km":35800.967476177,"semimajor_km":42164.747379694,"source":"CELESTRAK","updated_at":"2026-05-25T13:38:13.865928Z"}}}